Location: Unspecified
(0.0000°N, 0.0000°E)
Time: 11:25:55
(UTC+00:00)

Vanguard 2 - Pass Details

Date: 14 October 2022
Orbit: 553 x 2933 km, 32.9° (Epoch: 29 November)

Event Time Altitude Azimuth Distance (km) Brightness Sun altitude
Rises 18:16:39 0° 296° (WNW) 6,236 13.2 -7.6°
Reaches altitude 10° 18:20:32 10° 293° (WNW) 5,426 12.9 -8.6°
Maximum altitude 18:37:32 62° 216° (SW) 3,174 10.8 -12.8°
Drops below altitude 10° 18:53:45 10° 138° (SE) 5,181 11.4 -16.8°
Sets 18:57:25 0° 134° (SE) 5,950 11.7 -17.7°
